User: anonymous   Login
Location: Caltech
(34.1382°N, 118.1253°W)
Time: 18:48:28
(UTC-07:00)
Language:

TITAN 4B R/B - Orbit

View from above orbital plane
View from above orbital plane
View from above satellite
View from above satellite

Ground track
Ground track

The orbit data is extracted from the following two-line orbital elements,

1 28647U 05016B   14301.44071913 0.00003800  00000-0  24527-3 0    04
2 28647  56.9986 316.6893 0132102  38.8432 321.1568 15.00835774    01
Epoch (UTC): 28 October 2014 10:34:38
Eccentricity: 0.0132102
inclination: 56.9986°
perigee height: 472 km
apogee height: 656 km
right ascension of ascending node: 316.6893°
argument of perigee: 38.8432°
revolutions per day: 15.00835774
mean anomaly at epoch: 321.1568°
orbit number at epoch: 0

The dashed part of the orbit path shows where the satellite is in the earth's shadow,  

DLR